Retour au catalogue

STARLINK-11305

ActifCommunicationsVLEO
NORAD 61247·PAYLOAD·🇺🇸 United States

Lancé Sep 25, 2024 depuis Vandenberg Space Force Base

Loading…

Prochains Passages (prochaines 24 heures)

TLE

FraisSource: CelesTrak SupGP

Époque: Sep 14, 2026, 21:15 UTC

1 61247C 24175E   26257.88590278  .00053506  00000+0  44054-3 0  2573
2 61247  53.1570 203.3919 0001149  95.7576 301.3631 15.69694279    10

Suivez STARLINK-11305 en temps réel avec AllMySat

Download on the App Store